Hourly Data Report for March 21, 2012

All times are specified in Local Standard Time (LST). Add 1 hour to adjust for Daylight Saving Time where and when it is observed.

HALIFAX STANFIELD INT'L A
NOVA SCOTIA

44°52'48.060" N
63°30'00.050" W
145.40 m
8202250
71395
YHZ

Download Data

Hourly Data (March 2012)
Hourly Data Report for March 21, 2012
TIME Temp Definition
°C
Dew Point Definition
°C
Rel Hum Definition
%
Wind Dir Definition
10's deg

Wind Spd Definition
km/h
Visibility Definition
km
Stn Press Definition
kPa
Hmdx Definition


Wind Chill Definition


Weather Definition


00:00 13.4 7.9 69 30 19 24.1 100.22     Clear
01:00 11.7 7.4 75 31 13 24.1 100.22     Clear
02:00 11.7 7.5 75 30 15 24.1 100.24     Mainly Clear
03:00 12.1 7.8 75 30 13 24.1 100.23     Mainly Clear
04:00 10.8 7.3 79 28 13 24.1 100.22     Clear
05:00 12.3 7.7 73 32 15 24.1 100.24     Clear
06:00 10.2 7.1 81 35 11 24.1 100.31     Mainly Clear
07:00 10.4 7.4 82 34 9 24.1 100.38     Mostly Cloudy
08:00 13.0 8.5 74 29 7 24.1 100.42     Mostly Cloudy
09:00 14.8 8.9 68 32 11 24.1 100.45     Mostly Cloudy
10:00 17.0 9.5 61   0 24.1 100.47     Cloudy
11:00 19.5 10.3 55 30 7 24.1 100.43     Mostly Cloudy
12:00 23.0 11.3 48 23 13 24.1 100.37 25   Mostly Cloudy
13:00 24.7 11.1 42 19 11 24.1 100.27 27   Mainly Clear
14:00 25.7 11.3 41 28 17 24.1 100.21 28   Mostly Cloudy
15:00 25.5 10.4 39 29 15 24.1 100.14 27   Mostly Cloudy
16:00 24.9 9.4 37 29 15 24.1 100.09 26   Mostly Cloudy
17:00 23.8 9.4 40 30 22 24.1 100.08 25   Mainly Clear
18:00 21.6 9.4 46 28 11 24.1 100.12     Mainly Clear
19:00 17.9 9.4 58 26 9 24.1 100.12     Mainly Clear
20:00 19.5 9.2 51 26 15 24.1 100.12     Clear
21:00 18.1 9.2 56 27 15 24.1 100.12     Clear
22:00 17.1 9.3 60 27 9 24.1 100.10     Clear
23:00 16.4 9.3 63 27 13 24.1 100.06     Clear

Notes on Data Quality.

Legend

  • E = Estimated
  • M = Missing
  • NA = Not Available
Date modified: